Temperature
5 4 4 4 4 5 4 4 5 5 6 6 5 6 6 7 7 7 7 8 8 9 9 9 10 10 10 10 10 10 11 11 11 10 11 11 11 11 11 11 11 11 11 11
4 4 4 5 5 5 5 5 4 5 6 6 5 5 6 6 6 7 7 8 8 9 9 9 10 10 10 10 10 10 10 10 10 10 10 10 10 10 10 10 10 10 10 10
4 4 5 5 5 5 5 4 4 5 5 5 5 5 6 6 7 7 7 8 8 8 9 9 9 9 9 10 10 10 10 10 10 10 10 10 10 10 10 10 10 10 10 10
3 4 5 5 4 5 5 5 5 5 4 4 5 5 6 6 6 6 7 7 8 8 8 9 9 9 9 9 9 9 9 10 9 9 9 9 9 9 9 9 9 10 10 9
3 4 4 4 4 5 4 5 5 5 4 4 4 4 5 5 6 6 6 7 7 8 8 8 9 9 9 9 9 9 9 9 9 9 9 9 9 9 9 9 9 9 9 9
3 4 4 4 5 5 4 4 4 3 3 4 4 4 5 5 6 6 6 6 7 7 8 8 8 8 8 8 9 9 9 9 9 9 9 9 9 9 9 9 9 9 9 9
3 4 4 4 4 4 4 3 3 3 3 4 4 4 5 6 5 6 6 6 7 7 7 7 7 8 8 8 8 8 8 8 8 8 8 8 8 8 8 8 8 8 8 8
3 3 3 3 4 3 3 3 3 4 3 3 3 4 5 5 5 6 6 6 6 7 7 7 7 7 7 7 8 8 8 8 8 8 8 8 8 8 8 8 8 8 8 8
3 3 3 3 4 4 3 2 3 2 2 3 3 3 4 5 4 5 5 5 6 6 6 7 7 7 7 7 7 8 8 8 8 8 8 8 8 8 8 8 8 8 8 7
2 2 3 3 3 3 3 2 1 2 3 4 4 4 4 4 4 4 4 5 5 6 6 6 6 7 7 7 7 7 7 7 7 7 7 7 7 7 7 7 7 7 7 7
2 1 2 2 2 2 2 2 2 1 2 3 3 5 4 4 4 4 4 5 5 5 5 6 6 6 6 7 7 7 7 7 7 7 7 7 7 7 7 7 7 7 7 6
1 1 1 2 2 2 2 2 1 2 2 1 2 4 4 3 4 4 4 5 5 5 5 5 5 5 6 6 6 6 6 6 6 6 6 6 7 7 6 6 6 6 6 6
1 1 2 2 2 1 1 1 1 1 1 0 2 4 4 3 3 4 4 4 4 4 5 5 5 5 5 6 6 6 6 6 6 6 6 6 6 6 6 6 6 6 6 5
1 -0 1 3 3 1 1 1 0 1 1 1 1 3 4 3 3 3 3 4 4 4 4 4 4 4 5 5 5 5 5 5 5 5 5 6 6 6 5 5 5 5 5 5
0 -0 -1 -0 0 1 1 1 1 1 1 2 2 1 3 2 2 2 3 3 3 3 3 4 4 4 4 4 5 5 5 5 5 5 5 5 5 5 5 5 5 5 4 4
-2 -1 -1 -0 0 0 0 1 1 1 1 1 1 1 2 1 1 1 2 2 2 2 3 3 3 3 3 4 4 4 4 4 4 4 4 4 4 4 4 4 4 4 4 4
-3 -2 -0 0 -0 0 1 1 1 1 0 0 1 2 0 0 0 1 2 2 2 2 2 2 3 3 3 3 3 4 4 4 4 4 4 4 4 4 4 4 3 3 3 3
-3 -2 -2 -1 -0 2 3 1 0 0 0 -1 -0 0 -0 0 1 2 2 2 2 2 2 2 2 2 3 3 3 3 3 3 3 3 3 3 3 3 3 3 3 3 3 3
-2 -2 -2 -2 -0 1 1 0 -1 -0 1 -0 -1 -0 -0 0 0 1 2 2 2 2 2 2 2 2 2 2 3 3 3 3 3 3 3 3 3 3 3 2 2 2 2 2
-3 -3 -3 -2 -0 2 3 0 -0 0 1 0 -1 -1 -1 -1 -0 1 2 2 1 1 1 2 2 2 2 2 2 2 2 2 2 2 2 2 2 2 2 2 2 2 2 1
-3 -3 -3 -2 -2 -0 0 -1 -0 1 2 1 0 -0 -1 -1 0 1 1 1 1 1 1 1 1 1 2 2 1 1 1 1 1 1 1 1 1 1 1 1 1 1 1 1
-3 -3 -3 -3 -2 0 -1 -1 -0 1 1 1 0 1 0 0 1 0 1 1 1 1 1 1 1 1 1 1 1 1 1 1 1 1 1 1 1 1 0 1 0 0 0 0
-3 -2 -3 -2 -0 -1 -1 -0 1 1 0 1 1 1 0 0 -0 -0 -0 -0 -0 -0 0 -0 -0 0 0 0 0 0 0 0 0 0 0 0 0 -0 -0 -0 -0 -0 -0 -1
-4 -4 -4 -4 -3 -2 -1 -0 0 1 1 1 1 0 0 -0 -0 -0 -1 -1 -1 -1 -1 -1 -0 -0 -0 -0 -0 -0 -0 -0 -0 -0 -0 -1 -1 -1 -1 -1 -1 -1 -1 -1
-3 -5 -4 -4 -3 -2 -0 0 1 1 0 0 0 0 0 -0 -0 -1 -1 -1 -1 -1 -1 -1 -1 -1 -1 -1 -1 -1 -1 -1 -1 -1 -1 -1 -1 -1 -1 -1 -1 -1 -1 -1
-5 -4 -4 -2 -1 -2 -0 1 1 0 -0 -0 -0 -0 -0 -1 -1 -1 -1 -1 -2 -2 -1 -1 -1 -1 -1 -1 -1 -1 -1 -1 -1 -1 -1 -1 -1 -1 -2 -2 -2 -2 -2 -2
Wind_Speed
2 2 2 4 4 4 3 4 6 7 5 4 8 10 12 8 6 7 7 7 7 7 6 5 5 5 6 6 6 6 6 5 5 4 4 4 4 3 2 2 2 3 4 4
2 3 5 3 3 3 3 4 5 6 3 3 6 11 9 7 7 7 7 7 6 4 3 3 3 4 5 6 7 7 7 6 6 5 4 3 3 3 2 2 2 3 4 4
4 3 2 2 1 2 3 4 4 4 6 3 3 7 6 5 4 4 4 5 5 5 5 4 4 5 5 5 6 6 6 6 5 5 3 2 2 2 1 2 2 3 3 4
2 3 1 1 2 2 4 4 4 4 3 3 0 4 7 5 5 4 5 4 5 4 4 3 3 4 5 5 5 5 6 6 5 5 6 6 5 4 3 3 3 2 3 3
2 1 1 3 4 4 4 2 2 3 2 4 2 3 6 3 5 6 5 5 5 4 4 4 3 4 4 4 5 5 6 6 5 5 6 6 5 4 2 2 3 3 3 3
3 2 2 3 3 3 2 2 3 2 1 4 5 4 6 5 7 5 5 5 5 4 4 3 3 3 3 3 3 4 5 6 5 6 6 6 7 5 4 3 3 3 3 3
3 2 1 0 1 1 2 3 3 3 2 5 2 4 8 7 5 5 6 6 5 4 3 3 3 3 3 3 4 4 6 6 6 6 6 6 7 6 7 5 5 4 3 3
1 4 2 0 2 2 2 4 4 3 4 4 2 6 7 5 3 4 4 3 3 3 3 3 4 4 3 4 4 4 5 6 6 6 6 5 5 5 5 5 4 4 4 3
2 4 2 1 1 3 3 2 3 3 1 3 5 6 7 2 3 3 4 3 4 4 3 3 4 3 3 3 4 4 5 5 5 5 5 5 5 5 5 4 4 3 2 2
3 3 4 3 1 1 3 4 3 3 2 4 6 5 5 4 5 5 5 5 5 5 4 3 4 4 3 3 3 3 4 4 4 5 5 4 4 4 4 3 4 3 3 3
2 2 4 1 3 4 2 2 3 2 3 3 4 7 4 5 6 6 7 6 5 5 5 4 4 3 3 2 1 1 1 2 3 4 4 4 4 3 3 3 4 3 3 3
2 2 3 5 3 3 4 5 5 3 4 4 3 8 3 4 4 5 6 6 5 4 4 4 3 2 2 2 1 1 1 1 2 3 3 3 3 3 3 3 3 3 4 3
3 2 1 3 2 1 2 4 5 3 2 4 4 8 3 4 5 4 5 5 4 4 4 4 2 1 2 2 2 2 2 2 2 2 3 3 3 4 4 4 3 3 3 3
3 3 5 7 5 3 4 5 5 5 5 6 9 11 11 9 8 7 6 5 4 4 4 3 3 2 3 2 2 2 2 2 1 2 3 3 4 4 4 3 3 3 3 3
3 4 5 7 7 5 6 8 8 10 9 9 10 10 13 9 7 7 6 5 4 4 4 4 3 4 3 3 3 2 2 1 1 1 2 2 2 2 3 2 3 2 2 2
2 3 2 5 5 6 8 10 11 12 10 11 11 13 8 7 5 5 5 4 5 5 5 4 4 4 4 4 3 3 2 2 1 1 2 2 1 2 2 2 2 2 1 1
3 3 2 4 3 3 8 10 12 8 8 8 11 10 6 6 7 6 6 5 5 6 5 5 5 4 4 4 3 3 3 2 1 1 1 0 1 1 2 2 2 2 1 1
4 3 2 2 1 6 6 2 6 8 8 9 9 8 6 7 7 6 4 4 5 6 6 5 4 5 4 3 2 2 2 1 0 1 0 0 1 1 1 2 2 1 1 1
5 5 2 1 3 7 6 2 4 5 7 7 9 9 6 5 4 5 3 3 4 6 5 5 4 4 3 2 2 1 2 1 1 1 0 0 0 1 1 2 1 1 1 0
3 3 3 3 3 6 5 2 2 2 6 4 5 7 4 2 3 6 5 5 5 5 4 4 3 2 2 2 1 1 1 1 1 1 1 1 1 2 2 2 1 1 1 1
2 2 5 5 6 8 5 1 4 3 6 3 3 4 3 4 6 6 5 5 4 4 4 3 2 2 2 2 1 0 1 2 2 1 1 0 0 1 1 1 1 1 1 1
7 5 5 4 5 8 2 4 6 6 3 2 3 3 4 5 5 5 5 5 5 4 4 3 2 3 3 2 1 1 2 3 2 1 1 0 0 0 1 2 1 1 2 1
7 7 5 8 7 4 3 5 4 2 3 4 3 4 3 3 4 5 5 5 4 4 4 3 2 3 3 2 1 2 3 2 1 1 1 1 1 0 1 2 2 1 1 1
4 3 3 5 8 6 6 5 4 4 4 5 4 4 3 4 5 5 5 5 4 4 3 2 2 2 3 3 2 3 3 2 1 0 1 1 0 0 0 0 1 1 1 1
5 5 4 6 7 6 5 6 6 5 4 5 5 4 4 4 5 5 5 5 4 4 3 2 2 3 3 3 3 3 2 1 1 1 1 1 0 0 0 0 1 1 2 2
5 7 7 7 6 5 6 4 3 4 5 5 4 4 4 4 5 4 4 4 3 3 3 2 2 3 3 3 3 3 2 1 0 1 1 1 1 0 0 0 1 2 2 3
Wind_Direction
60 78 220 227 217 211 202 233 266 267 267 252 252 263 274 276 256 243 238 232 230 233 237 224 214 205 195 189 188 192 185 182 173 173 174 174 184 187 199 203 188 187 184 182
53 248 249 239 224 207 223 252 269 288 292 262 262 269 269 266 252 238 232 233 233 236 244 236 227 199 192 194 193 191 192 189 189 189 188 184 177 181 200 204 195 199 191 188
184 252 260 206 204 204 242 224 243 271 316 296 284 284 263 269 252 249 246 237 232 221 223 237 235 206 194 198 202 202 201 196 194 186 161 140 131 135 168 212 202 215 201 195
241 281 261 224 239 203 254 239 245 269 299 295 267 278 272 257 262 259 259 255 247 244 238 245 242 212 205 207 204 203 203 200 195 183 175 172 182 191 208 212 209 211 197 195
254 258 208 230 244 209 230 276 265 251 239 300 277 245 279 258 254 253 250 253 255 251 239 245 252 236 228 217 209 206 204 201 194 188 186 184 188 198 189 192 194 201 195 191
245 236 210 232 248 209 223 359 355 19 70 274 242 213 277 240 239 259 266 267 264 265 258 254 265 265 255 230 217 205 203 208 196 187 191 192 188 186 179 202 208 208 206 196
314 277 285 268 15 34 82 86 14 349 327 256 242 225 255 251 239 248 261 270 276 275 276 280 289 272 251 235 225 212 209 209 195 185 193 201 197 191 196 205 212 208 212 211
282 287 272 306 174 188 188 151 166 213 246 289 292 241 257 264 265 278 277 278 283 275 273 276 275 270 260 245 230 213 208 206 195 190 194 199 198 196 204 209 215 210 217 215
201 260 303 254 216 149 138 179 179 147 291 285 270 279 295 282 316 308 304 303 281 269 266 273 282 282 272 261 240 215 208 203 196 194 192 195 197 201 206 209 212 205 209 208
172 261 285 284 93 77 153 147 111 141 191 271 285 273 262 273 273 281 284 285 283 281 281 287 287 280 267 254 258 234 210 201 200 194 194 199 200 199 202 202 203 209 209 197
162 200 296 337 189 198 148 146 141 153 185 196 271 272 232 230 243 257 265 272 270 276 278 279 286 285 292 298 267 261 238 210 204 202 200 195 199 186 183 199 206 208 207 199
165 164 257 252 245 196 184 185 170 189 233 209 234 270 271 247 262 260 266 273 275 277 282 279 276 293 307 289 285 270 262 237 223 207 199 201 193 178 185 200 211 210 204 202
157 153 309 326 320 199 204 204 190 176 170 202 223 263 305 324 309 296 282 288 298 304 305 309 310 304 299 284 263 259 254 254 247 208 196 197 194 187 197 203 203 207 201 198
159 179 204 223 242 216 231 223 195 182 210 233 236 263 292 304 310 315 308 302 303 302 299 303 308 304 302 299 276 272 282 276 252 222 204 205 205 199 200 201 197 200 192 190
145 209 231 256 266 249 242 235 213 213 217 225 251 257 275 286 297 301 305 310 312 312 312 308 306 308 312 316 317 311 301 296 269 225 220 233 223 194 180 187 192 187 186 191
136 194 232 269 258 254 258 241 226 228 231 241 263 272 270 291 307 304 300 296 296 297 296 298 303 308 308 314 317 315 304 301 276 228 243 239 198 173 169 178 175 162 171 173
173 164 200 261 285 302 263 231 211 216 219 215 241 257 300 308 301 294 287 275 277 288 291 292 291 285 284 289 293 292 279 290 282 258 253 224 153 166 184 166 149 159 171 165
162 159 180 270 350 245 248 193 193 217 236 224 244 266 278 278 288 287 273 269 280 287 288 287 286 288 288 292 299 308 334 340 19 59 3 283 160 179 154 143 156 160 146 160
181 167 173 190 256 274 287 236 180 207 263 227 236 265 288 310 316 300 287 284 277 285 285 282 280 281 283 293 313 352 360 1 10 3 314 297 182 173 159 165 180 164 123 120
145 160 170 180 221 246 257 206 169 138 282 246 222 255 280 4 311 290 317 311 301 301 299 294 297 302 306 316 4 25 350 352 321 302 290 271 188 178 191 194 187 121 111 126
170 181 201 211 234 261 257 193 125 170 262 290 231 240 218 224 247 284 311 312 306 306 309 315 315 313 307 331 50 8 328 297 292 303 317 339 178 181 184 158 124 112 105 94
182 183 200 183 217 255 204 144 186 226 285 288 268 247 234 257 286 305 307 309 316 319 326 334 332 320 328 349 35 310 291 292 309 329 345 341 308 166 127 123 110 113 125 132
203 196 194 201 222 267 206 214 239 251 264 272 266 264 251 267 283 296 302 303 306 308 313 322 316 318 329 323 278 271 289 308 329 2 344 324 356 24 145 149 151 129 132 158
246 197 203 254 266 267 258 258 266 254 254 270 272 274 258 262 275 287 295 298 301 305 304 316 328 318 315 319 314 289 296 311 344 320 308 322 4 6 16 150 164 163 185 208
220 181 215 256 275 295 275 242 253 270 274 277 283 273 253 253 269 268 279 285 290 300 308 307 295 291 297 311 310 310 318 345 329 303 305 325 297 237 285 312 251 227 231 221
194 187 195 237 236 224 259 257 246 254 266 268 275 285 276 250 258 268 274 277 281 287 299 304 301 299 300 306 305 307 314 311 269 287 292 268 252 271 249 314 344 318 269 282
Height
1499 1503 1505 1503 1503 1503 1505 1506 1505 1501 1497 1497 1494 1491 1485 1483 1484 1482 1481 1481 1480 1480 1482 1483 1485 1486 1487 1490 1492 1493 1496 1497 1499 1501 1503 1504 1506 1508 1510 1512 1514 1515 1517 1518
1503 1504 1502 1501 1501 1502 1503 1504 1503 1499 1496 1495 1493 1489 1483 1481 1480 1479 1478 1477 1477 1477 1478 1479 1480 1482 1483 1485 1488 1490 1492 1494 1496 1498 1500 1502 1503 1505 1507 1509 1510 1512 1514 1515
1503 1502 1500 1500 1501 1502 1502 1503 1502 1501 1497 1494 1493 1488 1482 1478 1476 1476 1475 1475 1475 1475 1475 1476 1477 1478 1480 1481 1483 1485 1488 1490 1492 1494 1496 1498 1500 1502 1504 1505 1506 1508 1510 1511
1503 1500 1500 1500 1500 1500 1501 1498 1499 1499 1501 1500 1497 1494 1481 1477 1476 1474 1473 1473 1472 1473 1473 1473 1474 1475 1476 1478 1481 1482 1485 1486 1488 1490 1492 1493 1495 1496 1498 1500 1502 1504 1505 1507
1502 1500 1500 1500 1499 1499 1499 1497 1498 1498 1501 1502 1498 1497 1483 1478 1475 1471 1471 1471 1470 1471 1471 1471 1471 1472 1473 1475 1477 1478 1480 1482 1484 1486 1488 1490 1491 1493 1495 1497 1498 1499 1501 1503
1501 1499 1499 1498 1496 1497 1497 1499 1499 1501 1503 1504 1497 1497 1486 1478 1472 1470 1469 1468 1468 1468 1469 1469 1470 1470 1470 1472 1473 1474 1477 1478 1479 1481 1483 1485 1487 1489 1491 1493 1493 1495 1496 1498
1501 1499 1497 1497 1497 1497 1499 1504 1509 1507 1509 1502 1494 1493 1483 1470 1468 1468 1467 1466 1466 1466 1467 1467 1467 1467 1467 1468 1469 1470 1472 1472 1475 1477 1479 1481 1483 1485 1486 1488 1489 1491 1492 1493
1504 1502 1498 1497 1498 1500 1501 1503 1509 1508 1507 1501 1495 1491 1477 1468 1467 1466 1466 1465 1464 1464 1464 1464 1464 1464 1464 1464 1465 1466 1467 1468 1470 1473 1475 1477 1479 1481 1482 1484 1485 1487 1487 1489
1505 1502 1497 1496 1496 1498 1500 1504 1505 1510 1510 1507 1496 1488 1475 1467 1466 1465 1465 1463 1462 1462 1462 1461 1461 1461 1460 1461 1461 1462 1463 1465 1466 1468 1471 1473 1475 1476 1477 1480 1482 1482 1484 1485
1505 1506 1499 1497 1496 1498 1499 1502 1507 1509 1507 1503 1494 1487 1479 1470 1466 1465 1464 1462 1461 1461 1460 1459 1459 1458 1458 1458 1459 1460 1461 1462 1463 1465 1468 1469 1470 1472 1473 1475 1477 1478 1480 1481
1503 1506 1501 1498 1499 1499 1501 1503 1504 1508 1507 1505 1498 1483 1468 1466 1463 1462 1460 1459 1459 1459 1457 1457 1456 1456 1456 1456 1456 1456 1457 1458 1460 1462 1464 1465 1466 1467 1469 1471 1473 1474 1476 1477
1503 1506 1505 1500 1496 1496 1497 1499 1502 1503 1505 1507 1503 1484 1463 1463 1461 1460 1459 1458 1458 1457 1456 1455 1454 1454 1454 1454 1454 1454 1455 1456 1458 1459 1460 1461 1462 1463 1465 1467 1468 1470 1471 1472
1501 1505 1503 1498 1499 1499 1498 1498 1499 1501 1504 1506 1501 1480 1463 1462 1460 1459 1459 1457 1456 1456 1455 1454 1453 1452 1451 1450 1451 1452 1452 1453 1454 1455 1456 1457 1459 1460 1462 1463 1464 1466 1467 1467
1498 1503 1502 1496 1491 1493 1495 1495 1497 1498 1499 1499 1492 1476 1464 1462 1460 1459 1458 1456 1455 1455 1454 1453 1451 1450 1449 1449 1449 1449 1450 1450 1451 1452 1453 1454 1455 1457 1458 1459 1461 1462 1462 1463
1496 1500 1500 1497 1493 1492 1490 1489 1491 1492 1489 1488 1479 1476 1465 1462 1461 1459 1457 1455 1454 1452 1451 1450 1449 1448 1447 1447 1446 1447 1447 1447 1448 1448 1449 1451 1452 1453 1454 1456 1457 1458 1459 1460
1497 1499 1499 1495 1490 1491 1488 1483 1483 1483 1483 1481 1477 1471 1463 1461 1460 1457 1456 1455 1453 1451 1450 1449 1448 1447 1445 1444 1444 1444 1444 1444 1445 1446 1447 1448 1449 1450 1451 1452 1453 1454 1456 1457
1497 1499 1497 1492 1491 1488 1481 1474 1475 1475 1474 1475 1473 1465 1462 1460 1457 1456 1454 1453 1452 1450 1449 1448 1446 1446 1445 1443 1442 1441 1441 1442 1442 1443 1444 1445 1447 1448 1449 1449 1450 1452 1453 1453
1495 1497 1499 1495 1491 1481 1468 1467 1467 1469 1467 1468 1465 1461 1460 1458 1456 1454 1454 1452 1451 1449 1448 1446 1445 1444 1443 1442 1441 1440 1439 1440 1440 1440 1442 1443 1444 1445 1446 1447 1448 1449 1450 1450
1491 1494 1498 1497 1491 1479 1467 1466 1467 1468 1463 1460 1461 1458 1457 1456 1454 1452 1451 1451 1450 1448 1447 1445 1444 1443 1442 1440 1439 1438 1438 1438 1438 1438 1439 1440 1441 1442 1443 1444 1445 1446 1447 1447
1490 1492 1496 1496 1488 1475 1462 1463 1462 1465 1462 1455 1456 1455 1455 1455 1456 1451 1449 1448 1447 1445 1444 1443 1442 1441 1440 1439 1438 1437 1436 1436 1436 1437 1437 1439 1439 1440 1441 1441 1442 1443 1443 1444
1491 1493 1494 1493 1489 1474 1462 1462 1463 1466 1459 1454 1453 1453 1453 1453 1453 1450 1448 1447 1445 1444 1442 1441 1440 1439 1438 1437 1437 1436 1435 1435 1435 1435 1436 1437 1438 1438 1438 1439 1439 1440 1440 1441
1484 1488 1490 1491 1488 1472 1460 1461 1461 1457 1453 1452 1451 1451 1451 1450 1449 1448 1446 1444 1443 1442 1440 1439 1438 1438 1437 1436 1435 1434 1434 1434 1434 1434 1434 1435 1435 1436 1436 1436 1437 1437 1438 1438
1478 1475 1475 1474 1467 1458 1456 1454 1454 1453 1452 1451 1450 1450 1449 1448 1447 1446 1444 1442 1441 1440 1439 1438 1437 1436 1436 1435 1434 1433 1433 1433 1432 1432 1432 1433 1433 1434 1434 1434 1434 1435 1435 1436
1472 1470 1470 1468 1458 1455 1453 1452 1452 1451 1450 1449 1449 1448 1447 1445 1444 1443 1442 1441 1439 1438 1437 1436 1435 1434 1433 1433 1433 1432 1432 1431 1430 1430 1430 1430 1430 1431 1431 1432 1432 1432 1432 1433
1464 1467 1467 1463 1456 1452 1449 1449 1449 1448 1447 1447 1446 1445 1444 1443 1442 1441 1439 1438 1437 1436 1435 1434 1433 1432 1432 1431 1431 1430 1430 1430 1429 1429 1429 1429 1429 1429 1429 1429 1430 1430 1431 1431
1458 1459 1460 1454 1449 1449 1446 1446 1446 1445 1444 1444 1443 1442 1441 1440 1439 1438 1437 1436 1435 1434 1433 1432 1431 1431 1430 1429 1429 1429 1429 1428 1427 1427 1427 1427 1427 1427 1427 1427 1427 1428 1429 1429